KUIPER-00079

Last updated on Sat Aug 16 2025 00:02:06 GMT+0000 (Coordinated Universal Time)

1 64826U 25151L 25227.58336806 -.00999681 00000+0 -37357-1 0 9996 2 64826 51.8794 141.5075 0004347 255.4530 355.1357 15.29491375 4185

Satellite not in orbit